SITRO-AIS 9 (SHCHUKIN)

Last updated on Sat Aug 15 2026 00:03:45 GMT+0000 (Coordinated Universal Time)

1 57201U 23091AM 26226.59247039 .00011799 00000+0 29690-3 0 9992 2 57201 97.5038 298.2887 0005924 207.2397 152.8539 15.40074637173734
UTC large
Height (km)
Speed (km/s)
/
Latitude / Longitude
Inclination (degrees)
Orbital Period (minutes)
Azimuth
Elevation
Range (km)
Doppler Factor

Next 0 passes for location: London (51.5072 / 0.1276)

No passes found over London.
SITRO-AIS 9 (SHCHUKIN)